This demonstration page uses our WeatherBlox Daily Observations layout. Learn more.

Left ArrowRight Arrow

Hourly Observations for May 4, 2015

Temp ( °F °C ) Dew Point ( °F °C ) Humidity (%) Winds ( mph kmh ) Pressure ( in mb ) Visibility ( mi km ) Precip ( " mm )
12:15 am 00:15 Clear 59 15 50 10 72 72 SSW 3 6 30.15 1021 10 16 N/A
12:35 am 00:35 Clear 57 14 50 10 77 77 SW 3 6 30.18 1022 10 16 N/A
12:55 am 00:55 Clear 57 14 50 10 77 77 SSW 3 6 30.18 1022 10 16 N/A
1:15 am 01:15 Clear 57 14 48 9 72 72 SSW 3 6 30.18 1022 10 16 N/A
1:35 am 01:35 Clear 55 13 50 10 82 82 SSW 5 7 30.18 1022 10 16 N/A
1:55 am 01:55 Clear 54 12 50 10 88 88 SSW 3 6 30.18 1022 10 16 N/A
2:15 am 02:15 Clear 55 13 50 10 82 82 SSW 6 9 30.18 1022 10 16 N/A
2:35 am 02:35 Clear 55 13 50 10 82 82 S 5 7 30.18 1022 10 16 N/A
2:55 am 02:55 Clear 52 11 48 9 88 88 SSW 7 11 30.21 1023 10 16 N/A
3:15 am 03:15 Clear 52 11 50 10 94 94 S 3 6 30.21 1023 10 16 N/A
3:35 am 03:35 Partly Cloudy 52 11 48 9 88 88 SSW 8 13 30.21 1023 10 16 N/A
3:55 am 03:55 Mostly Cloudy 50 10 48 9 94 94 N N/A 30.21 1023 10 16 N/A
4:15 am 04:15 Partly Cloudy 52 11 48 9 88 88 N N/A 30.21 1023 10 16 N/A
4:35 am 04:35 Partly Cloudy 50 10 48 9 94 94 N N/A 30.21 1023 10 16 N/A
4:55 am 04:55 Clear 50 10 48 9 94 94 N N/A 30.24 1024 10 16 N/A
5:15 am 05:15 Clear 48 9 46 8 94 94 N N/A 30.24 1024 10 16 N/A
5:35 am 05:35 Clear 50 10 50 10 100 100 SSW 5 7 30.24 1024 10 16 N/A
5:55 am 05:55 Clear 50 10 48 9 94 94 N N/A 30.24 1024 10 16 N/A
6:15 am 06:15 Sunny 46 8 46 8 100 100 N N/A 30.24 1024 10 16 N/A
6:35 am 06:35 Sunny 48 9 48 9 100 100 N N/A 30.24 1024 10 16 N/A
6:55 am 06:55 Sunny 50 10 50 10 100 100 N N/A 30.27 1025 10 16 N/A
7:15 am 07:15 Sunny 52 11 50 10 94 94 W 3 6 30.27 1025 10 16 N/A
7:35 am 07:35 Sunny 54 12 50 10 88 88 S 5 7 30.24 1024 10 16 N/A
7:55 am 07:55 Sunny 57 14 52 11 82 82 N N/A 30.24 1024 10 16 N/A
8:15 am 08:15 Sunny 59 15 52 11 77 77 N N/A 30.24 1024 10 16 N/A
8:35 am 08:35 Sunny 63 17 52 11 68 68 N N/A 30.24 1024 10 16 N/A
8:55 am 08:55 Sunny 64 18 52 11 64 64 N N/A 30.24 1024 10 16 N/A
9:15 am 09:15 Sunny 68 20 52 11 56 56 N N/A 30.24 1024 10 16 N/A
9:35 am 09:35 Sunny 70 21 52 11 53 53 SSE 3 6 30.24 1024 10 16 N/A
9:55 am 09:55 Sunny 72 22 54 12 53 53 S 3 6 30.24 1024 10 16 N/A
10:15 am 10:15 Sunny 73 23 54 12 50 50 SSE 3 6 30.24 1024 10 16 N/A
10:35 am 10:35 Sunny 75 24 55 13 50 50 S 7 11 30.24 1024 10 16 N/A
10:55 am 10:55 Sunny 79 26 55 13 45 45 SSW 7 11 30.24 1024 10 16 N/A
11:15 am 11:15 Sunny 81 27 55 13 42 42 S 10 17 30.24 1024 10 16 N/A
11:35 am 11:35 Sunny 81 27 54 12 39 39 S 10 17 30.24 1024 10 16 N/A
11:55 am 11:55 Sunny 82 28 54 12 37 37 S 20 31 30.24 1024 10 16 N/A
12:15 pm 12:15 Sunny 82 28 54 12 37 37 S 14 22 30.24 1024 10 16 N/A
12:35 pm 12:35 Sunny 82 28 52 11 35 35 S 15 24 30.21 1023 10 16 N/A
12:55 pm 12:55 Sunny 84 29 52 11 33 33 S 15 24 30.21 1023 10 16 N/A
1:15 pm 13:15 Partly Cloudy 84 29 52 11 33 33 S 16 26 30.21 1023 10 16 N/A
1:35 pm 13:35 Sunny 84 29 52 11 33 33 SW 14 22 30.21 1023 10 16 N/A
1:55 pm 13:55 Partly Cloudy 86 30 50 10 29 29 SW 12 19 30.21 1023 10 16 N/A
2:15 pm 14:15 Partly Cloudy 84 29 52 11 33 33 SSW 14 22 30.21 1023 10 16 N/A
2:35 pm 14:35 Sunny 86 30 52 11 31 31 WSW 10 17 30.18 1022 10 16 N/A
2:55 pm 14:55 Sunny 86 30 50 10 29 29 S 14 22 30.18 1022 10 16 N/A
3:15 pm 15:15 Partly Cloudy 86 30 52 11 31 31 SSW 20 31 30.18 1022 10 16 N/A
3:35 pm 15:35 Hazy 86 30 52 11 31 31 WSW 9 15 30.18 1022 5 8 N/A
3:55 pm 15:55 Sunny 86 30 52 11 31 31 S 16 26 30.15 1021 10 16 N/A
4:15 pm 16:15 Sunny 86 30 52 11 31 31 SSW 16 26 30.15 1021 10 16 N/A
4:35 pm 16:35 Sunny 86 30 52 11 31 31 SSW 10 17 30.15 1021 10 16 N/A
4:55 pm 16:55 Sunny 86 30 52 11 31 31 SSW 13 20 30.15 1021 10 16 N/A
5:15 pm 17:15 Sunny 86 30 52 11 31 31 SSW 14 22 30.15 1021 10 16 N/A
5:35 pm 17:35 Sunny 86 30 52 11 31 31 S 16 26 30.15 1021 10 16 N/A
5:55 pm 17:55 Sunny 86 30 52 11 31 31 SSW 16 26 30.15 1021 10 16 N/A
6:15 pm 18:15 Partly Cloudy 82 28 54 12 37 37 SSW 13 20 30.15 1021 10 16 N/A
6:35 pm 18:35 Partly Cloudy 82 28 52 11 35 35 SSW 17 28 30.15 1021 10 16 N/A
6:55 pm 18:55 Sunny 82 28 54 12 37 37 S 16 26 30.15 1021 10 16 N/A
7:15 pm 19:15 Sunny 81 27 54 12 39 39 S 14 22 30.15 1021 10 16 N/A
7:35 pm 19:35 Sunny 81 27 54 12 39 39 SSW 15 24 30.15 1021 10 16 N/A
7:55 pm 19:55 Sunny 79 26 54 12 42 42 SSW 15 24 30.15 1021 10 16 N/A
8:15 pm 20:15 Clear 77 25 54 12 44 44 SSW 14 22 30.15 1021 10 16 N/A
8:35 pm 20:35 Clear 77 25 54 12 44 44 SSW 13 20 30.15 1021 10 16 N/A
8:55 pm 20:55 Clear 77 25 54 12 44 44 SSW 12 19 30.18 1022 10 16 N/A
9:15 pm 21:15 Clear 73 23 54 12 50 50 S 8 13 30.18 1022 10 16 N/A
9:35 pm 21:35 Clear 73 23 54 12 50 50 S 7 11 30.18 1022 10 16 N/A
9:55 pm 21:55 Clear 73 23 54 12 50 50 S 7 11 30.18 1022 10 16 N/A
10:15 pm 22:15 Clear 72 22 54 12 53 53 S 8 13 30.18 1022 10 16 N/A
10:35 pm 22:35 Clear 72 22 54 12 53 53 S 8 13 30.18 1022 10 16 N/A
10:55 pm 22:55 Clear 72 22 55 13 57 57 SSW 7 11 30.21 1023 10 16 N/A
11:15 pm 23:15 Clear 70 21 55 13 60 60 SSW 7 11 30.21 1023 10 16 N/A
11:35 pm 23:35 Clear 70 21 55 13 60 60 S 6 9 30.21 1023 10 16 N/A
11:55 pm 23:55 Clear 70 21 55 13 60 60 S 6 9 30.21 1023 10 16 N/A

Powered by AerisWeather